Weather History for Cincinnati, OH

Change the Weather History Date:

Friday, January 31, 2014

  Actual Average Record
Temperature  
Mean Temperature 3 °C -  
Max Temperature 6 °C 5 °C 18 °C (2002)
Min Temperature 1 °C -4 °C -21 °C (2004)
Degree Days  
Heating Degree Days 27    
Moisture  
Dew Point -9 °C    
Average Humidity 45    
Maximum Humidity 73    
Minimum Humidity 30    
Precipitation  
Precipitation 0.00 mm - - ()
Sea Level Pressure  
Sea Level Pressure 1020 hPa    
Wind  
Wind Speed 10 km/h (SSW)    
Max Wind Speed 19 km/h    
Max Gust Speed -    
Visibility 16 kilometers    
Events      
Averages and records for this station are not official NWS values.
T = Trace of Precipitation, MM = Missing Value Source: NWS Daily Summary

Daily Weather History Graph

Daily Weather History Graph

Search for Another Location

Airport:

Trip Planner

Search our weather history database for the weather conditions in past years. The results will help you decide how hot, cold, wet, or windy it might be!

Date:

Astronomy

Jan. 31, 2014 Rise Set
Actual Time 7:45 AM EST 5:57 PM EST
Civil Twilight 7:16 AM EST 6:25 PM EST
Nautical Twilight 6:44 AM EST 6:57 PM EST
Astronomical Twilight 6:13 AM EST 7:29 PM EST
Moon 7:55 AM EST (1/31) 7:19 PM EST (1/31)
Length of Visible Light 11h 08m
Length of Day
10h 12m
New Moon, 1% of the Moon is Illuminated
Jan 31
New Moon
Feb 6
First Quarter
Feb 14
Full
Feb 22
Last Quarter
Mar 1
New

Hourly Weather History & Observations

Time (EST) Temp. Windchill Dew Point Humidity Pressure Visibility Wind Dir Wind Speed Gust Speed Precip Events Conditions
12:53 AM 1.1 °C -3.0 °C -12.2 °C 37% 1017.8 hPa 16.1 km SSW 14.8 km/h / 4.1 m/s - N/A   Mostly Cloudy
1:53 AM 1.7 °C -2.6 °C -12.2 °C 35% 1017.7 hPa 16.1 km SSW 16.7 km/h / 4.6 m/s - N/A   Mostly Cloudy
2:53 AM 1.1 °C -3.6 °C -11.7 °C 38% 1018.0 hPa 16.1 km SSW 18.5 km/h / 5.1 m/s - N/A   Clear
3:53 AM 1.1 °C -3.6 °C -11.7 °C 38% 1017.9 hPa 16.1 km SSW 18.5 km/h / 5.1 m/s - N/A   Scattered Clouds
4:53 AM 1.1 °C -3.3 °C -11.7 °C 38% 1018.6 hPa 16.1 km SW 16.7 km/h / 4.6 m/s - N/A   Overcast
5:53 AM 0.6 °C -2.4 °C -10.6 °C 43% 1019.3 hPa 16.1 km SSW 9.3 km/h / 2.6 m/s - N/A   Overcast
6:53 AM 1.1 °C -0.6 °C -11.1 °C 40% 1019.6 hPa 16.1 km South 5.6 km/h / 1.5 m/s - N/A   Overcast
7:53 AM 1.1 °C -1.8 °C -11.1 °C 40% 1020.3 hPa 16.1 km South 9.3 km/h / 2.6 m/s - N/A   Overcast
8:53 AM 1.1 °C -2.2 °C -10.0 °C 44% 1021.0 hPa 16.1 km South 11.1 km/h / 3.1 m/s - N/A   Overcast
9:53 AM 1.7 °C 0.1 °C -10.6 °C 40% 1021.5 hPa 16.1 km SW 5.6 km/h / 1.5 m/s - N/A   Overcast
10:53 AM 2.2 °C 0.7 °C -10.6 °C 39% 1021.5 hPa 16.1 km SSW 5.6 km/h / 1.5 m/s - N/A   Overcast
11:53 AM 2.8 °C 0.2 °C -11.1 °C 36% 1021.9 hPa 16.1 km SW 9.3 km/h / 2.6 m/s - N/A   Overcast
12:53 PM 3.3 °C 0.8 °C -10.6 °C 36% 1020.7 hPa 16.1 km SSW 9.3 km/h / 2.6 m/s - N/A   Overcast
1:53 PM 4.4 °C 3.2 °C -11.1 °C 32% 1020.3 hPa 16.1 km West 5.6 km/h / 1.5 m/s - N/A   Overcast
2:53 PM 4.4 °C 2.1 °C -7.8 °C 41% 1020.2 hPa 16.1 km SSW 9.3 km/h / 2.6 m/s - N/A   Overcast
3:53 PM 6.1 °C - -10.6 °C 30% 1020.3 hPa 16.1 km Calm Calm - N/A   Mostly Cloudy
4:53 PM 5.6 °C - -10.0 °C 32% 1020.4 hPa 16.1 km Calm Calm - N/A   Overcast
5:53 PM 3.9 °C - -8.3 °C 41% 1020.4 hPa 16.1 km Calm Calm - N/A   Overcast
6:53 PM 2.2 °C - -6.1 °C 55% 1020.9 hPa 16.1 km Calm Calm - N/A   Overcast
7:53 PM 1.7 °C - -5.6 °C 59% 1020.9 hPa 16.1 km Calm Calm - N/A   Overcast
8:53 PM 2.8 °C - -6.7 °C 50% 1020.5 hPa 16.1 km Calm Calm - N/A   Overcast
9:53 PM 1.1 °C - -4.4 °C 67% 1020.3 hPa 16.1 km Calm Calm - N/A   Overcast
10:53 PM 1.1 °C - -3.3 °C 73% 1019.9 hPa 16.1 km Calm Calm - N/A   Overcast
11:04 PM 1.1 °C - -3.3 °C 73% 1019.5 hPa 16.1 km Calm Calm - N/A   Overcast
11:53 PM 1.1 °C - -3.3 °C 73% 1019.5 hPa 16.1 km Calm Calm - N/A   Overcast